YAOGAN 14

导读

YAOGAN 14(遥感十四号)是中国自主研制的遥感卫星,于北京时间2012年5月10日在太原卫星发射中心,由长征四号乙运载火箭成功发射升空,任务还搭载发射了天拓一号微小卫星。该卫星主要用于开展科学试验、国土资源普查、农作物估产及防灾减灾等领域的应用,将为我国国民经济发展提供积极的数据支撑,助力相关领域科学研究与生产实践。

基本信息
目录编号:
38257
目录名称:
YAOGAN 14
国际标识:
2012-021A
轨道中心:
EARTH
卫星名称:
YAOGAN 14
卫星全名:
--
卫星状态:
在轨 (已飞行5146 天)
发射日期:
2012-05-10 UTC
国别 :
中国 (CN)
星等 :
--
轨道信息
数据来源 国际轨道数据 AOE轨道数据
星历时间 2026-06-12T15:32:47+0800
12小时前
查看轨道信息
2026-06-11T05:00:00+0800
1天前
查看轨道信息
半长轴 6860.244km 6860.327km
偏心率 0.0004829 0.0005164
轨道倾角 97.302° 97.301°
近地点辐角 183.030° 186.933°
升交点赤经 300.694° 299.283°
平近点角 177.091° 180.818°
近地点 478.794km 478.647km
远地点 485.42km 485.733km
周期 94.247分钟 94.249分钟
每日圈数 15.27895 15.27867
详细信息
使用方式:
暂无
2D轨道图
3D轨道图
轨道高度分析图
轨道倾角分析图
轨道综合分析图
查看轨道综合分析图